This demonstration page uses our WeatherBlox Daily Observations layout. Learn more.

Left ArrowRight Arrow

Hourly Observations for May 31, 2021

Temp ( °F °C ) Dew Point ( °F °C ) Humidity (%) Winds ( mph kmh ) Pressure ( in mb ) Visibility ( mi km ) Precip ( " mm )
12:53 am 00:53 Clear 59 15 50 10 72 72 Calm 30.20 1023 10 16 0.00 0.00
1:53 am 01:53 Clear 55 12.8 50 10 83 83 Calm 30.21 1023 10 16 0.00 0.00
2:53 am 02:53 Clear 55 12.8 52 11.1 90 90 Calm 30.22 1023 10 16 0.00 0.00
3:53 am 03:53 Clear 53 11.7 50 10 89 89 Calm 30.22 1023 10 16 0.00 0.00
4:53 am 04:53 Clear 53 11.7 51 10.6 93 93 Calm 30.23 1024 10 16 0.00 0.00
5:53 am 05:53 Mostly Cloudy 52 11.1 50 10 93 93 Calm 30.24 1024 10 16 0.00 0.00
6:53 am 06:53 Mostly Sunny 54 12.2 52 11.1 93 93 Calm 30.26 1025 10 16 0.00 0.00
7:53 am 07:53 Mostly Cloudy 60 15.6 55 12.8 84 84 NNE 5 7 30.27 1025 10 16 0.00 0.00
8:53 am 08:53 Mostly Sunny 65 18.3 55 12.8 70 70 NE 5 7 30.29 1026 10 16 0.00 0.00
9:53 am 09:53 Mostly Sunny 68 20 54 12.2 61 61 VRB 6 9 30.29 1026 10 16 0.00 0.00
10:53 am 10:53 Sunny 71 21.7 53 11.7 53 53 SSE 12 19 30.28 1026 10 16 0.00 0.00
11:53 am 11:53 Mostly Sunny 72 22.2 52 11.1 50 50 E 6 9 30.28 1025 10 16 0.00 0.00
12:53 pm 12:53 Mostly Cloudy 75 23.9 53 11.7 46 46 VRB 5 7 30.27 1025 10 16 0.00 0.00
1:53 pm 13:53 Mostly Cloudy 76 24.4 54 12.2 47 47 VRB 3 6 30.25 1025 10 16 0.00 0.00
2:53 pm 14:53 Mostly Cloudy 78 25.6 53 11.7 42 42 SSE 12 19 30.25 1024 10 16 0.00 0.00
3:53 pm 15:53 Mostly Cloudy 79 26.1 52 11.1 39 39 S 6 9 30.24 1024 10 16 0.00 0.00
4:53 pm 16:53 Mostly Cloudy 77 25 52 11.1 42 42 E 3 6 30.23 1024 10 16 0.00 0.00
5:53 pm 17:53 Mostly Cloudy 78 25.6 52 11.1 40 40 SSE 7 11 30.23 1024 10 16 0.00 0.00
6:53 pm 18:53 Sunny 79 26.1 51 10.6 38 38 SE 7 11 30.21 1023 10 16 0.00 0.00
7:53 pm 19:53 Partly Cloudy 77 25 52 11.1 42 42 VRB 3 6 30.22 1023 10 16 0.00 0.00
8:53 pm 20:53 Mostly Clear 74 23.3 53 11.7 48 48 E 5 7 30.22 1024 10 16 0.00 0.00
9:53 pm 21:53 Clear 72 22.2 54 12.2 53 53 ESE 6 9 30.22 1023 10 16 0.00 0.00
10:53 pm 22:53 Clear 66 18.9 54 12.2 65 65 E 5 7 30.24 1024 10 16 0.00 0.00
11:53 pm 23:53 Clear 70 21.1 54 12.2 57 57 E 6 9 30.22 1023 10 16 0.00 0.00

Powered by AerisWeather